StationID,Date,MaxTemp,MinTemp,Precipitation,Snowfall,SnowDepth
"CA00109H9M2","1989-05-01",,,0.00,0.00,0.00
"CA00109H9M2","1989-05-02",,,0.00,0.00,0.00
"CA00109H9M2","1989-05-03",,,0.00,0.00,0.00
"CA00109H9M2","1989-05-04",,,0.00,0.00,0.00
"CA00109H9M2","1989-05-05",,,0.00,0.00,0.00
"CA00109H9M2","1989-05-06",,,10.00,0.00,0.00
"CA00109H9M2","1989-05-07",,,0.00,0.00,0.00
"CA00109H9M2","1989-05-08",,,0.00,0.00,0.00
"CA00109H9M2","1989-05-09",,,,0.00,0.00
"CA00109H9M2","1989-05-10",,,,0.00,0.00
"CA00109H9M2","1989-05-11",,,,0.00,0.00
"CA00109H9M2","1989-05-12",,,0.00,0.00,0.00
"CA00109H9M2","1989-05-13",,,0.00,0.00,0.00
"CA00109H9M2","1989-05-14",,,0.00,0.00,0.00
"CA00109H9M2","1989-05-15",,,42.00,0.00,0.00
"CA00109H9M2","1989-05-16",,,48.00,0.00,0.00
"CA00109H9M2","1989-05-17",,,84.00,0.00,0.00
"CA00109H9M2","1989-05-18",,,44.00,0.00,0.00
"CA00109H9M2","1989-05-19",,,0.00,0.00,0.00
"CA00109H9M2","1989-05-20",,,0.00,0.00,0.00
"CA00109H9M2","1989-05-21",,,0.00,0.00,0.00
"CA00109H9M2","1989-05-22",,,0.00,0.00,0.00
"CA00109H9M2","1989-05-23",,,0.00,0.00,0.00
"CA00109H9M2","1989-05-24",,,20.00,0.00,0.00
"CA00109H9M2","1989-05-25",,,46.00,0.00,0.00
"CA00109H9M2","1989-05-26",,,8.00,0.00,0.00
"CA00109H9M2","1989-05-27",,,0.00,0.00,0.00
"CA00109H9M2","1989-05-28",,,0.00,0.00,0.00
"CA00109H9M2","1989-05-29",,,0.00,0.00,0.00
"CA00109H9M2","1989-05-30",,,0.00,0.00,0.00
"CA00109H9M2","1989-05-31",,,0.00,0.00,0.00
"CA00109H9M2","1989-06-01",,,0.00,0.00,0.00
"CA00109H9M2","1989-06-02",,,0.00,0.00,0.00
"CA00109H9M2","1989-06-03",,,0.00,0.00,0.00
"CA00109H9M2","1989-06-04",,,0.00,0.00,0.00
"CA00109H9M2","1989-06-05",,,0.00,0.00,0.00
"CA00109H9M2","1989-06-06",,,0.00,0.00,0.00
"CA00109H9M2","1989-06-07",,,0.00,0.00,0.00
"CA00109H9M2","1989-06-08",,,34.00,0.00,0.00
"CA00109H9M2","1989-06-09",,,0.00,0.00,0.00
"CA00109H9M2","1989-06-10",,,0.00,0.00,0.00
"CA00109H9M2","1989-06-11",,,0.00,0.00,0.00
"CA00109H9M2","1989-06-12",,,0.00,0.00,0.00
"CA00109H9M2","1989-06-13",,,10.00,0.00,0.00
"CA00109H9M2","1989-06-14",,,60.00,0.00,0.00
"CA00109H9M2","1989-06-15",,,10.00,0.00,0.00
"CA00109H9M2","1989-06-16",,,0.00,0.00,0.00
"CA00109H9M2","1989-06-17",,,0.00,0.00,0.00
"CA00109H9M2","1989-06-18",,,0.00,0.00,0.00
"CA00109H9M2","1989-06-19",,,66.00,0.00,0.00
"CA00109H9M2","1989-06-20",,,11.00,0.00,0.00
"CA00109H9M2","1989-06-21",,,56.00,0.00,0.00
"CA00109H9M2","1989-06-22",,,0.00,0.00,0.00
"CA00109H9M2","1989-06-23",,,0.00,0.00,0.00
"CA00109H9M2","1989-06-24",,,0.00,0.00,0.00
"CA00109H9M2","1989-06-25",,,26.00,0.00,0.00
"CA00109H9M2","1989-06-26",,,128.00,0.00,0.00
"CA00109H9M2","1989-06-27",,,52.00,0.00,0.00
"CA00109H9M2","1989-06-28",,,26.00,0.00,0.00
"CA00109H9M2","1989-06-29",,,,0.00,0.00
"CA00109H9M2","1989-06-30",,,,0.00,0.00
"CA00109H9M2","1989-07-01",,,0.00,0.00,0.00
"CA00109H9M2","1989-07-02",,,0.00,0.00,0.00
"CA00109H9M2","1989-07-03",,,10.00,0.00,0.00
"CA00109H9M2","1989-07-04",,,8.00,0.00,0.00
"CA00109H9M2","1989-07-05",,,128.00,0.00,0.00
"CA00109H9M2","1989-07-06",,,16.00,0.00,0.00
"CA00109H9M2","1989-07-07",,,48.00,0.00,0.00
"CA00109H9M2","1989-07-08",,,0.00,0.00,0.00
"CA00109H9M2","1989-07-09",,,12.00,0.00,0.00
"CA00109H9M2","1989-07-10",,,52.00,0.00,0.00
"CA00109H9M2","1989-07-11",,,52.00,0.00,0.00
"CA00109H9M2","1989-07-12",,,10.00,0.00,0.00
"CA00109H9M2","1989-07-13",,,16.00,0.00,0.00
"CA00109H9M2","1989-07-14",,,8.00,0.00,0.00
"CA00109H9M2","1989-07-15",,,10.00,0.00,0.00
"CA00109H9M2","1989-07-16",,,0.00,0.00,0.00
"CA00109H9M2","1989-07-17",,,0.00,0.00,0.00
"CA00109H9M2","1989-07-18",,,0.00,0.00,0.00
"CA00109H9M2","1989-07-19",,,0.00,0.00,0.00
"CA00109H9M2","1989-07-20",,,32.00,0.00,0.00
"CA00109H9M2","1989-07-21",,,58.00,0.00,0.00
"CA00109H9M2","1989-07-22",,,0.00,0.00,0.00
"CA00109H9M2","1989-07-23",,,2.00,0.00,0.00
"CA00109H9M2","1989-07-24",,,0.00,0.00,0.00
"CA00109H9M2","1989-07-25",,,0.00,0.00,0.00
"CA00109H9M2","1989-07-26",,,48.00,0.00,0.00
"CA00109H9M2","1989-07-27",,,0.00,0.00,0.00
"CA00109H9M2","1989-07-28",,,0.00,0.00,0.00
"CA00109H9M2","1989-07-29",,,0.00,0.00,0.00
"CA00109H9M2","1989-07-30",,,0.00,0.00,0.00
"CA00109H9M2","1989-07-31",,,4.00,0.00,0.00
"CA00109H9M2","1989-08-01",,,428.00,0.00,0.00
"CA00109H9M2","1989-08-02",,,102.00,0.00,0.00
"CA00109H9M2","1989-08-03",,,0.00,0.00,0.00
"CA00109H9M2","1989-08-04",,,0.00,0.00,0.00
"CA00109H9M2","1989-08-05",,,0.00,0.00,0.00
"CA00109H9M2","1989-08-06",,,0.00,0.00,0.00
"CA00109H9M2","1989-08-07",,,0.00,0.00,0.00
"CA00109H9M2","1989-08-08",,,0.00,0.00,0.00
"CA00109H9M2","1989-08-09",,,26.00,0.00,0.00
"CA00109H9M2","1989-08-10",,,0.00,0.00,0.00
"CA00109H9M2","1989-08-11",,,0.00,0.00,0.00
"CA00109H9M2","1989-08-12",,,28.00,0.00,0.00
"CA00109H9M2","1989-08-13",,,38.00,0.00,0.00
"CA00109H9M2","1989-08-14",,,96.00,0.00,0.00
"CA00109H9M2","1989-08-15",,,124.00,0.00,0.00
"CA00109H9M2","1989-08-16",,,0.00,0.00,0.00
"CA00109H9M2","1989-08-17",,,0.00,0.00,0.00
"CA00109H9M2","1989-08-18",,,0.00,0.00,0.00
"CA00109H9M2","1989-08-19",,,14.00,0.00,0.00
"CA00109H9M2","1989-08-20",,,38.00,0.00,0.00
"CA00109H9M2","1989-08-21",,,176.00,0.00,0.00
"CA00109H9M2","1989-08-22",,,0.00,0.00,0.00
"CA00109H9M2","1989-08-23",,,0.00,0.00,0.00
"CA00109H9M2","1989-08-24",,,0.00,0.00,0.00
"CA00109H9M2","1989-08-25",,,10.00,0.00,0.00
"CA00109H9M2","1989-08-26",,,0.00,0.00,0.00
"CA00109H9M2","1989-08-27",,,0.00,0.00,0.00
"CA00109H9M2","1989-08-28",,,0.00,0.00,0.00
"CA00109H9M2","1989-08-29",,,0.00,0.00,0.00
"CA00109H9M2","1989-08-30",,,22.00,0.00,0.00
"CA00109H9M2","1989-08-31",,,110.00,0.00,0.00
"CA00109H9M2","1989-09-01",,,50.00,0.00,0.00
"CA00109H9M2","1989-09-02",,,0.00,0.00,0.00
"CA00109H9M2","1989-09-03",,,6.00,0.00,0.00
"CA00109H9M2","1989-09-04",,,0.00,0.00,0.00
"CA00109H9M2","1989-09-05",,,0.00,0.00,0.00
"CA00109H9M2","1989-09-06",,,0.00,0.00,0.00
"CA00109H9M2","1989-09-07",,,0.00,0.00,0.00
"CA00109H9M2","1989-09-08",,,0.00,0.00,0.00
"CA00109H9M2","1989-09-09",,,0.00,0.00,0.00
"CA00109H9M2","1989-09-10",,,0.00,0.00,0.00
"CA00109H9M2","1989-09-11",,,0.00,0.00,0.00
"CA00109H9M2","1989-09-12",,,0.00,0.00,0.00
"CA00109H9M2","1989-09-13",,,0.00,0.00,0.00
"CA00109H9M2","1989-09-14",,,0.00,0.00,0.00
"CA00109H9M2","1989-09-15",,,0.00,0.00,0.00
"CA00109H9M2","1989-09-16",,,0.00,0.00,0.00
"CA00109H9M2","1989-09-17",,,0.00,0.00,0.00
"CA00109H9M2","1989-09-18",,,14.00,0.00,0.00
"CA00109H9M2","1989-09-19",,,8.00,0.00,0.00
"CA00109H9M2","1989-09-20",,,0.00,0.00,0.00
"CA00109H9M2","1989-09-21",,,0.00,0.00,0.00
"CA00109H9M2","1989-09-22",,,0.00,0.00,0.00
"CA00109H9M2","1989-09-23",,,0.00,0.00,0.00
"CA00109H9M2","1989-09-24",,,0.00,0.00,0.00
"CA00109H9M2","1989-09-25",,,0.00,0.00,0.00
"CA00109H9M2","1989-09-26",,,0.00,0.00,0.00
"CA00109H9M2","1989-09-27",,,0.00,0.00,0.00
"CA00109H9M2","1989-09-28",,,0.00,0.00,0.00
"CA00109H9M2","1989-09-29",,,20.00,0.00,0.00
"CA00109H9M2","1989-09-30",,,0.00,0.00,0.00
"CA00109H9M2","1989-10-01",,,0.00,0.00,0.00
"CA00109H9M2","1989-10-02",,,0.00,0.00,0.00
"CA00109H9M2","1989-10-03",,,0.00,0.00,0.00
"CA00109H9M2","1989-10-04",,,0.00,0.00,0.00
"CA00109H9M2","1989-10-05",,,22.00,0.00,0.00
"CA00109H9M2","1989-10-06",,,0.00,0.00,0.00
"CA00109H9M2","1989-10-07",,,0.00,0.00,0.00
"CA00109H9M2","1989-10-08",,,0.00,0.00,0.00
"CA00109H9M2","1989-10-09",,,110.00,0.00,0.00
"CA00109H9M2","1989-10-10",,,8.00,0.00,0.00
"CA00109H9M2","1989-10-11",,,12.00,0.00,0.00
"CA00109H9M2","1989-10-12",,,0.00,0.00,0.00
"CA00109H9M2","1989-10-13",,,30.00,0.00,0.00
"CA00109H9M2","1989-10-14",,,0.00,0.00,0.00
"CA00109H9M2","1989-10-15",,,0.00,0.00,0.00
"CA00109H9M2","1989-10-16",,,38.00,0.00,0.00
"CA00109H9M2","1989-10-17",,,0.00,0.00,0.00
"CA00109H9M2","1989-10-18",,,0.00,0.00,0.00
"CA00109H9M2","1989-10-19",,,0.00,0.00,0.00
"CA00109H9M2","1989-10-20",,,0.00,0.00,0.00
"CA00109H9M2","1989-10-21",,,0.00,0.00,0.00
"CA00109H9M2","1989-10-22",,,0.00,0.00,0.00
"CA00109H9M2","1989-10-23",,,10.00,0.00,0.00
"CA00109H9M2","1989-10-24",,,66.00,0.00,0.00
"CA00109H9M2","1989-10-25",,,0.00,0.00,0.00
"CA00109H9M2","1989-10-26",,,,,0.00
"CA00109H9M2","1989-10-27",,,0.00,0.00,0.00
"CA00109H9M2","1989-10-28",,,0.00,0.00,0.00
"CA00109H9M2","1989-10-29",,,0.00,0.00,0.00
"CA00109H9M2","1989-10-30",,,0.00,0.00,0.00
"CA00109H9M2","1989-10-31",,,0.00,0.00,0.00
"CA00109H9M2","1989-12-01",,,30.00,30.00,100.00
"CA00109H9M2","1989-12-02",,,0.00,0.00,100.00
"CA00109H9M2","1989-12-03",,,0.00,0.00,100.00
"CA00109H9M2","1989-12-04",,,0.00,0.00,100.00
"CA00109H9M2","1989-12-05",,,0.00,0.00,100.00
"CA00109H9M2","1989-12-06",,,0.00,0.00,100.00
"CA00109H9M2","1989-12-07",,,50.00,50.00,100.00
"CA00109H9M2","1989-12-08",,,0.00,0.00,120.00
"CA00109H9M2","1989-12-09",,,30.00,30.00,120.00
"CA00109H9M2","1989-12-10",,,0.00,0.00,150.00
"CA00109H9M2","1989-12-11",,,0.00,0.00,150.00
"CA00109H9M2","1989-12-12",,,0.00,0.00,150.00
"CA00109H9M2","1989-12-13",,,0.00,0.00,150.00
"CA00109H9M2","1989-12-14",,,0.00,0.00,150.00
"CA00109H9M2","1989-12-15",,,0.00,0.00,150.00
"CA00109H9M2","1989-12-16",,,0.00,0.00,150.00
"CA00109H9M2","1989-12-17",,,0.00,0.00,150.00
"CA00109H9M2","1989-12-18",,,175.00,175.00,150.00
"CA00109H9M2","1989-12-19",,,490.00,490.00,300.00
"CA00109H9M2","1989-12-20",,,50.00,50.00,610.00
"CA00109H9M2","1989-12-21",,,50.00,50.00,630.00
"CA00109H9M2","1989-12-22",,,0.00,0.00,680.00
"CA00109H9M2","1989-12-23",,,0.00,0.00,680.00
"CA00109H9M2","1989-12-24",,,0.00,0.00,680.00
"CA00109H9M2","1989-12-25",,,0.00,0.00,680.00
"CA00109H9M2","1989-12-26",,,0.00,0.00,640.00
"CA00109H9M2","1989-12-27",,,,,600.00
"CA00109H9M2","1989-12-28",,,30.00,30.00,600.00
"CA00109H9M2","1989-12-29",,,60.00,60.00,600.00
"CA00109H9M2","1989-12-30",,,0.00,0.00,600.00
"CA00109H9M2","1989-12-31",,,0.00,0.00,600.00
"CA00109H9M2","1990-01-01",,,0.00,0.00,600.00
"CA00109H9M2","1990-01-02",,,25.00,25.00,600.00
"CA00109H9M2","1990-01-03",,,15.00,15.00,560.00
"CA00109H9M2","1990-01-04",,,40.00,40.00,580.00
"CA00109H9M2","1990-01-05",,,0.00,0.00,580.00
"CA00109H9M2","1990-01-06",,,0.00,0.00,580.00
"CA00109H9M2","1990-01-07",,,0.00,0.00,560.00
"CA00109H9M2","1990-01-08",,,0.00,0.00,560.00
"CA00109H9M2","1990-01-09",,,10.00,10.00,
"CA00109H9M2","1990-01-10",,,0.00,0.00,
"CA00109H9M2","1990-01-11",,,30.00,30.00,
"CA00109H9M2","1990-01-12",,,0.00,0.00,
"CA00109H9M2","1990-01-13",,,50.00,50.00,
"CA00109H9M2","1990-01-14",,,0.00,0.00,560.00
"CA00109H9M2","1990-01-15",,,0.00,0.00,540.00
"CA00109H9M2","1990-01-16",,,0.00,0.00,
"CA00109H9M2","1990-01-17",,,0.00,0.00,
"CA00109H9M2","1990-01-18",,,0.00,0.00,
"CA00109H9M2","1990-01-19",,,0.00,0.00,500.00
"CA00109H9M2","1990-01-20",,,0.00,0.00,500.00
"CA00109H9M2","1990-01-21",,,50.00,50.00,500.00
"CA00109H9M2","1990-01-22",,,0.00,0.00,540.00
"CA00109H9M2","1990-01-23",,,0.00,0.00,540.00
"CA00109H9M2","1990-01-24",,,0.00,0.00,540.00
"CA00109H9M2","1990-01-25",,,0.00,0.00,540.00
"CA00109H9M2","1990-01-26",,,0.00,0.00,540.00
"CA00109H9M2","1990-01-27",,,15.00,15.00,540.00
"CA00109H9M2","1990-01-28",,,45.00,45.00,560.00
"CA00109H9M2","1990-01-29",,,40.00,40.00,600.00
"CA00109H9M2","1990-01-30",,,30.00,30.00,620.00
"CA00109H9M2","1990-01-31",,,30.00,30.00,640.00
"CA00109H9M2","1990-02-01",,,,,630.00
"CA00109H9M2","1990-02-02",,,0.00,0.00,630.00
"CA00109H9M2","1990-02-03",,,70.00,70.00,
"CA00109H9M2","1990-02-04",,,10.00,10.00,650.00
"CA00109H9M2","1990-02-05",,,0.00,0.00,650.00
"CA00109H9M2","1990-02-06",,,3.00,3.00,620.00
"CA00109H9M2","1990-02-07",,,7.00,7.00,620.00
"CA00109H9M2","1990-02-08",,,0.00,0.00,630.00
"CA00109H9M2","1990-02-09",,,0.00,0.00,630.00
"CA00109H9M2","1990-02-10",,,5.00,5.00,620.00
"CA00109H9M2","1990-02-11",,,22.00,22.00,600.00
"CA00109H9M2","1990-02-12",,,0.00,0.00,600.00
"CA00109H9M2","1990-02-13",,,0.00,0.00,600.00
"CA00109H9M2","1990-02-14",,,55.00,55.00,600.00
"CA00109H9M2","1990-02-15",,,47.00,47.00,650.00
"CA00109H9M2","1990-02-16",,,0.00,0.00,670.00
"CA00109H9M2","1990-02-17",,,0.00,0.00,670.00
"CA00109H9M2","1990-02-18",,,0.00,0.00,670.00
"CA00109H9M2","1990-02-19",,,0.00,0.00,670.00
"CA00109H9M2","1990-02-20",,,0.00,0.00,650.00
"CA00109H9M2","1990-02-21",,,0.00,0.00,620.00
"CA00109H9M2","1990-02-22",,,0.00,0.00,620.00
"CA00109H9M2","1990-02-23",,,30.00,0.00,600.00
"CA00109H9M2","1990-02-24",,,4.00,0.00,580.00
"CA00109H9M2","1990-02-25",,,0.00,0.00,580.00
"CA00109H9M2","1990-02-26",,,0.00,0.00,580.00
"CA00109H9M2","1990-02-27",,,0.00,0.00,580.00
"CA00109H9M2","1990-02-28",,,0.00,0.00,580.00
"CA00109H9M2","1990-03-01",,,0.00,0.00,560.00
"CA00109H9M2","1990-03-02",,,0.00,0.00,560.00
"CA00109H9M2","1990-03-03",,,0.00,0.00,500.00
"CA00109H9M2","1990-03-04",,,0.00,0.00,500.00
"CA00109H9M2","1990-03-05",,,0.00,0.00,500.00
"CA00109H9M2","1990-03-06",,,0.00,0.00,500.00
"CA00109H9M2","1990-03-07",,,25.00,25.00,500.00
"CA00109H9M2","1990-03-08",,,0.00,0.00,460.00
"CA00109H9M2","1990-03-09",,,0.00,0.00,460.00
"CA00109H9M2","1990-03-10",,,0.00,0.00,460.00
"CA00109H9M2","1990-03-11",,,0.00,0.00,440.00
"CA00109H9M2","1990-03-12",,,0.00,0.00,400.00
"CA00109H9M2","1990-03-13",,,0.00,0.00,400.00
"CA00109H9M2","1990-03-14",,,0.00,0.00,400.00
"CA00109H9M2","1990-03-15",,,0.00,0.00,370.00
"CA00109H9M2","1990-03-16",,,0.00,0.00,370.00
"CA00109H9M2","1990-03-17",,,0.00,0.00,350.00
"CA00109H9M2","1990-03-18",,,0.00,0.00,300.00
"CA00109H9M2","1990-03-19",,,0.00,0.00,300.00
"CA00109H9M2","1990-03-20",,,29.00,22.00,300.00
"CA00109H9M2","1990-03-21",,,0.00,0.00,300.00
"CA00109H9M2","1990-03-22",,,0.00,0.00,250.00
"CA00109H9M2","1990-03-23",,,0.00,0.00,250.00
"CA00109H9M2","1990-03-24",,,0.00,0.00,250.00
"CA00109H9M2","1990-03-25",,,0.00,0.00,250.00
"CA00109H9M2","1990-03-26",,,0.00,0.00,250.00
"CA00109H9M2","1990-03-27",,,0.00,0.00,200.00
"CA00109H9M2","1990-03-28",,,0.00,0.00,200.00
"CA00109H9M2","1990-03-29",,,0.00,0.00,200.00
"CA00109H9M2","1990-03-30",,,0.00,0.00,200.00
"CA00109H9M2","1990-03-31",,,0.00,0.00,150.00
"CA00109H9M2","1990-04-01",,,0.00,0.00,200.00
"CA00109H9M2","1990-04-02",,,0.00,0.00,200.00
"CA00109H9M2","1990-04-03",,,0.00,0.00,150.00
"CA00109H9M2","1990-04-04",,,0.00,0.00,150.00
"CA00109H9M2","1990-04-05",,,0.00,0.00,100.00
"CA00109H9M2","1990-04-06",,,0.00,0.00,100.00
"CA00109H9M2","1990-04-07",,,0.00,0.00,100.00
"CA00109H9M2","1990-04-08",,,0.00,0.00,100.00
"CA00109H9M2","1990-04-09",,,0.00,0.00,50.00
"CA00109H9M2","1990-04-10",,,0.00,0.00,0.00
"CA00109H9M2","1990-04-11",,,80.00,0.00,0.00
"CA00109H9M2","1990-04-12",,,0.00,0.00,0.00
"CA00109H9M2","1990-04-13",,,16.00,0.00,0.00
"CA00109H9M2","1990-04-14",,,0.00,0.00,0.00
"CA00109H9M2","1990-04-15",,,0.00,0.00,0.00
"CA00109H9M2","1990-04-16",,,0.00,0.00,0.00
"CA00109H9M2","1990-04-17",,,80.00,0.00,0.00
"CA00109H9M2","1990-04-18",,,0.00,0.00,0.00
"CA00109H9M2","1990-04-19",,,6.00,0.00,0.00
"CA00109H9M2","1990-04-20",,,0.00,0.00,0.00
"CA00109H9M2","1990-04-21",,,0.00,0.00,0.00
"CA00109H9M2","1990-04-22",,,8.00,0.00,0.00
"CA00109H9M2","1990-04-23",,,58.00,0.00,0.00
"CA00109H9M2","1990-04-24",,,4.00,0.00,0.00
"CA00109H9M2","1990-04-25",,,,,0.00
"CA00109H9M2","1990-04-26",,,,,0.00
"CA00109H9M2","1990-04-27",,,4.00,0.00,0.00
"CA00109H9M2","1990-04-28",,,0.00,0.00,0.00
"CA00109H9M2","1990-04-29",,,0.00,0.00,0.00
"CA00109H9M2","1990-04-30",,,20.00,0.00,0.00
"CA00109H9M2","1990-05-01",,,22.00,0.00,0.00
"CA00109H9M2","1990-05-02",,,0.00,0.00,0.00
"CA00109H9M2","1990-05-03",,,0.00,0.00,0.00
"CA00109H9M2","1990-05-04",,,0.00,0.00,0.00
"CA00109H9M2","1990-05-05",,,0.00,0.00,0.00
"CA00109H9M2","1990-05-06",,,22.00,0.00,0.00
"CA00109H9M2","1990-05-07",,,0.00,0.00,0.00
"CA00109H9M2","1990-05-08",,,0.00,0.00,0.00
"CA00109H9M2","1990-05-09",,,0.00,0.00,0.00
"CA00109H9M2","1990-05-10",,,32.00,0.00,0.00
"CA00109H9M2","1990-05-11",,,14.00,0.00,0.00
"CA00109H9M2","1990-05-12",,,0.00,0.00,0.00
"CA00109H9M2","1990-05-13",,,0.00,0.00,0.00
"CA00109H9M2","1990-05-14",,,0.00,0.00,0.00
"CA00109H9M2","1990-05-15",,,0.00,0.00,0.00
"CA00109H9M2","1990-05-16",,,72.00,0.00,0.00
"CA00109H9M2","1990-05-17",,,16.00,0.00,0.00
"CA00109H9M2","1990-05-18",,,0.00,0.00,0.00
"CA00109H9M2","1990-05-19",,,0.00,0.00,0.00
"CA00109H9M2","1990-05-20",,,42.00,0.00,0.00
"CA00109H9M2","1990-05-21",,,0.00,0.00,0.00
"CA00109H9M2","1990-05-22",,,0.00,0.00,0.00
"CA00109H9M2","1990-05-23",,,24.00,0.00,0.00
"CA00109H9M2","1990-05-24",,,54.00,0.00,0.00
"CA00109H9M2","1990-05-25",,,39.00,0.00,0.00
"CA00109H9M2","1990-05-26",,,0.00,0.00,0.00
"CA00109H9M2","1990-05-27",,,0.00,0.00,0.00
"CA00109H9M2","1990-05-28",,,26.00,0.00,0.00
"CA00109H9M2","1990-05-29",,,48.00,0.00,0.00
"CA00109H9M2","1990-05-30",,,0.00,0.00,0.00
"CA00109H9M2","1990-05-31",,,44.00,0.00,0.00
